Regional Weather Roundup
Issued by NWS Newport/Morehead, NC

Current Version | Previous Version | Text Only | Print | Product List | Glossary On
Versions: 1 2 3 4 5 6 7 8 9 10 11 12 13 14 15 16 17 18 19 20 21 22 23 24 25 26 27 28 29 30 31 32 33 34 35 36 37 38 39 40 41 42 43 44 45 46 47 48 49 50
000 ASUS42 KMHX 042025 RWRMHX WEATHER ROUNDUP FOR EASTERN NORTH CAROLINA NATIONAL WEATHER SERVICE NEWPORT/MOREHEAD CITY NC 400 PM EDT TUE AUG 04 2015 NOTE: "FAIR" INDICATES FEW OR NO CLOUDS BELOW 12,000 FEET WITH NO SIGNIFICANT WEATHER AND/OR OBSTRUCTIONS TO VISIBILITY NCZ015>017-031-032-045>047-102-103-042100- NORTH COAST CITY SKY/WX TMP DP RH WIND PRES REMARKS EDENTON N/A 89 72 57 S15G21 29.96F ELIZABETH CITY MOSUNNY 86 76 71 S12 29.96F KITTY HAWK MOCLDY 87 76 69 SW5 29.97F MANTEO PTSUNNY 85 73 66 SW20 29.98F $$ NCZ045>047-081-094-103-104-042100- CENTRAL COAST CITY SKY/WX TMP DP RH WIND PRES REMARKS FRISCO PTSUNNY 83 76 79 SW10 30.02S SWANQUARTER N/A 86 N/A N/A S17G28 29.94F $$ NCZ095-097-098-100-101-042100- SOUTHERN COAST CITY SKY/WX TMP DP RH WIND PRES REMARKS BEAUFORT CLOUDY 83 76 79 SW20 29.99F CEDAR ISLAND N/A 84 N/A N/A S13G22 30.03F JACKSONVILLE CLOUDY 79 73 82 S10G21 29.97F PINEY ISLAND MOCLDY N/A N/A N/A S16G24 29.99F WILMINGTON CLOUDY 83 76 79 S7 29.92F $$ NCZ011>013-027>030-043-044-078>080-089-090>093-098-042100- COASTAL PLAIN CITY SKY/WX TMP DP RH WIND PRES REMARKS AHOSKIE SUNNY N/A N/A N/A S13G18 29.94F CLINTON MOSUNNY 88 75 67 SE6 29.94F ELIZABETHTOWN PTSUNNY 82 73 75 SE6 29.93F GOLDSBORO MOSUNNY 91 73 56 SE13 29.92F GREENVILLE MOSUNNY 90 73 58 S10 29.97F HAVELOCK PTSUNNY 83 73 72 SW13G21 29.99F KENANSVILLE PTSUNNY 84 70 61 SE7 29.96F KINSTON MOSUNNY 90 72 55 S13 29.97F NEW BERN PTSUNNY 86 73 65 S16G25 30.00S RICHLANDS CLOUDY 82 72 69 SE7G20 29.97F ROCKY MOUNT MOSUNNY 94 72 48 SW10 29.94F HX 102 WASHINGTON MOSUNNY 87 73 61 S10G16 29.96F WHITEVILLE CLOUDY 77 75 92 NE7 29.92F $$ AMZ130-135-150-152-154-156-158-170-250-252-270-ANZ085-086-088-633-658-670-042100- MARINE OBSERVATIONS STATION/POSITION TIME TEMP WIND PRES WAVE SWELL AIR SEA DIR/SP/G HT/PER HT/PER (UTC) (F) (DEG/KT/KT) (MB) (FT/S) (FT/S) CHESAPEAKE LIGHT 2000 80 190/ 23/ 25 1013.9 64 E VA BEACH 1950 80 81 210/ 17/ 21 1014.8 5/ 5 2/ 8 DUCK 2000 83 63 210/ 13/ 17 1014.2 2 E DUCK 1911 67 N/A 2/12 OREGON INLET 2000 82 82 200/ 15/ 18 1015.9 13E OREGON INLT 2000 81 N/A 3/ 6 HATTERAS CG 2000 82 79 210/ 10/ 13 1015.9 DIAMOND BUOY 1950 83 84 210/ 19/ 25 1016.0 5/ 5 2/11 CAPE LOOKOUT 2000 82 220/ 8/ 12 1015.4 BEAUFORT LAB 2000 82 80 210/ 11/ 19 1014.9 30 SE NEW RVR IN NOT AVBL 27 SE WRIGHTSVLE 2000 77 82 220/ 19/ 25 N/A 5 SE WRIGHTSVLE 1908 80 82 190/ 19/ 25 1014.0 225 S CAPE HAT 1950 83 82 200/ 14/ 16 1018.8 6/ 6 3/11 41 SE CHARLESTON 1950 81 83 240/ 14/ 16 1013.9 5/ 7 3/ 7 $$

USA.gov is the U.S. government's official web portal to all federal, state and local government web resources and services.